Content
SEND FEEDBACK

Daily
Averages
Monthly
Summary
Russia

BANNYY, RUSSIA


Home > Europe > Russia
Elevation: 184 feet     Latitude: 61 15N     Longitude: 073 30E

WEATHER
 
SELECT A DAY
Number of Records: 170,188;   Date Range: 1/29/98 - 7/20/14
 
SHARE

PRINT THIS DATA

[ ← Previous Day ]
WEATHER ALMANAC - JANUARY 31, 2013
[ Next Day → ]
[ °C ]   °F
Weather ElementAverageHighLow
Temperature-4.1 °F3.2 °F (2:00 pm)-16.6 °F (12:00 am)
Dewpoint-7.8 °F-0.4 °F (1:00 pm)-22 °F (12:00 am)
Humidity83.9 %92 % (8:30 am)72 % (6:00 am)
Barometer30.12 in30.18 in (6:00 pm)30.09 in (8:00 am)
Wind Speed2.7 mph4.5 mph (12:00 am)
Weather ElementAverage
Visibility3.5 mi
Wind DirectionENE (67.4 °)

Weather ElementTotal
Precipitation---
Heating Degree Days71.7 (Base 65)
Averaged from 51 records on January 31, 2013
WEATHER CONDITIONS BREAKOUT
WIND DIRECTION BREAKOUT
WEATHER BY HOUR - JANUARY 31, 2013
[ °C ]   °F
Local TimeTemperatureDewpointHumidityBarometerVisibilityWind DirectionWind SpeedGust SpeedPrecipitationEventsConditions
12:00 AM-16.6 °F-22.0 °F76 %30.15 in3.1 miEast (100°)4.5 mphFogPatches of Fog
12:30 AM-14.8 °F-20.2 °F77 %30.15 in2.8 miEast (80°)4.5 mphScattered Clouds
1:00 AM-14.8 °F-20.2 °F77 %30.15 in3.7 miEast (100°)4.5 mphMostly Cloudy
1:30 AM-13.0 °F-18.4 °F77 %30.15 in3.7 miEast (100°)4.5 mphMostly Cloudy
2:00 AM-13.0 °F-18.4 °F77 %30.15 inEast (90°)4.5 mphMostly Cloudy
2:30 AM-13.0 °F-18.4 °F77 %30.15 in3.1 miEast (90°)4.5 mphMostly Cloudy
3:00 AM-13.0 °F-16.6 °F84 %30.15 in3.1 miEast (90°)4.5 mphMostly Cloudy
3:30 AM-11.2 °F-16.6 °F77 %30.12 in3.1 miVariable2.2 mphMostly Cloudy
4:00 AM-11.2 °F-14.8 °F84 %30.12 in3.7 miEast (100°)4.5 mphMostly Cloudy
4:30 AM-9.4 °F-14.8 °F77 %30.12 in3.7 miSE (130°)4.5 mphMostly Cloudy
5:00 AM-9.4 °F-13.0 °F84 %30.12 in3.7 miESE (120°)4.5 mphMostly Cloudy
5:30 AM-7.6 °F-11.2 °F84 %30.12 in3.1 miSE (130°)4.5 mphMostly Cloudy
6:00 AM-7.6 °F-11.2 °F84 %30.12 in3.1 miESE (110°)4.5 mphMostly Cloudy
6:00 AM-7.0 °F-11.0 °F72 %30.16 in3.0 miESE (110°)4.5 mphMist
6:30 AM-7.6 °F-11.2 °F84 %30.12 in3.7 miESE (120°)4.5 mphMostly Cloudy
7:00 AM-5.8 °F-9.4 °F84 %30.12 in1.6 miESE (110°)4.5 mphSnowLight Snow
7:30 AM-5.8 °F-9.4 °F84 %30.12 inESE (110°)4.5 mphSnowLight Snow
8:00 AM-4.0 °F-7.6 °F85 %30.09 in4.3 miESE (120°)4.5 mphSnowLight Snow
8:30 AM-4.0 °F-5.8 °F92 %30.09 in1.6 miESE (120°)4.5 mphSnowLight Snow Showers
9:00 AM-2.2 °F-5.8 °F85 %30.09 in1.6 miESE (120°)4.5 mphSnowLight Snow Showers
9:30 AM-2.2 °F-5.8 °F85 %30.09 in1.6 miSE (130°)4.5 mphSnowLight Snow Showers
10:00 AM-2.2 °F-5.8 °F85 %30.09 in3.7 miVariable2.2 mphSnowLight Snow
10:30 AM-0.4 °F-4.0 °F85 %30.09 in3.7 miEast (90°)4.5 mphSnowLight Snow
11:00 AM-0.4 °F-4.0 °F85 %30.09 in3.7 miEast (100°)4.5 mphSnowLight Snow
11:30 AM-0.4 °F-4.0 °F85 %30.09 in3.7 miSE (130°)4.5 mphSnowLight Snow
12:00 PM-0.4 °F-2.2 °F92 %30.09 in4.3 miESE (110°)4.5 mphOvercast
12:00 PM0.0 °F-3.0 °F81 %30.13 in2.0 miESE (110°)4.5 mphOvercast
12:30 PM1.4 °F-2.2 °F85 %30.09 in4.3 miCalmOvercast
1:00 PM1.4 °F-0.4 °F92 %30.09 in4.3 miSE (140°)2.2 mphOvercast
1:30 PM1.4 °F-0.4 °F92 %30.09 in4.3 miSSE (160°)2.2 mphSnowLight Snow
2:00 PM3.2 °F-0.4 °F85 %30.09 in4.3 miCalmSnowLight Snow
2:30 PM3.2 °F-0.4 °F85 %30.09 in4.3 miCalmSnowLight Snow
3:00 PM3.2 °F-0.4 °F85 %30.09 in4.3 miCalmMostly Cloudy
3:30 PM3.2 °F-0.4 °F85 %30.09 in4.3 miCalmMostly Cloudy
4:00 PM3.2 °F-0.4 °F85 %30.09 in4.3 miCalmMostly Cloudy
4:30 PM1.4 °F-0.4 °F92 %30.12 in4.3 miEast (80°)4.5 mphMostly Cloudy
5:00 PM1.4 °F-2.2 °F85 %30.12 in3.7 miEast (90°)4.5 mphMostly Cloudy
5:30 PM1.4 °F-2.2 °F85 %30.12 in3.7 miCalmMostly Cloudy
6:00 PM-0.4 °F-4.0 °F85 %30.12 in3.7 miCalmMostly Cloudy
6:00 PM-1.0 °F-4.0 °F79 %30.18 in4.0 miCalmMist
6:30 PM-0.4 °F-2.2 °F92 %30.12 in3.7 miCalmMostly Cloudy
7:00 PM-0.4 °F-4.0 °F85 %30.15 in3.7 miCalmMostly Cloudy
7:30 PM-0.4 °F-4.0 °F85 %30.15 in3.7 miCalmMostly Cloudy
8:00 PM-2.2 °F-5.8 °F85 %30.15 in3.7 miCalmScattered Clouds
8:30 PM-4.0 °F-7.6 °F85 %30.15 in3.7 miCalmMostly Cloudy
9:00 PM-4.0 °F-7.6 °F85 %30.15 in3.7 miCalmMostly Cloudy
9:30 PM-5.8 °F-9.4 °F84 %30.15 in3.7 miCalmMostly Cloudy
10:00 PM-5.8 °F-9.4 °F84 %30.15 in3.7 miCalmMostly Cloudy
10:30 PM-4.0 °F-7.6 °F85 %30.15 in2.8 miENE (60°)2.2 mphMostly Cloudy
11:00 PM-4.0 °F-7.6 °F85 %30.15 in3.1 miENE (60°)2.2 mphMostly Cloudy
11:30 PM-5.8 °F-9.4 °F84 %30.15 in3.1 miENE (60°)2.2 mphMostly Cloudy
Hourly data recorded from USRR, located miles away from Bannyy, Russia







STORIES FROM OUR PARTNERS